Location: 22
(39.7117°N, 89.5929°W)
Time: 06:53:14
(UTC-05:00)

ISS - Pass Details

Date: 28 September 2021
Orbit: 417 x 423 km, 51.6° (Epoch: 16 October)

Event Time Altitude Azimuth Distance (km) Brightness Sun altitude
Rises 20:09:15 0° 314° (NW) 2,364 1.1 -16.9°
Reaches altitude 10° 20:12:07 10° 340° (NNW) 1,500 -0.5 -17.5°
Maximum altitude 20:14:02 14° 15° (NNE) 1,266 -1.4 -17.9°
Enters shadow 20:14:32 14° 25° (NNE) 1,284 -1.4 -17.9°
